DW4604 Weather Reports


time (UTC)temp
F
wind
direction
speed
knots
gust
knots
rain 1hr
in
rain 24hr
in
rain mn
in
humidity
%
barometer
mb
20260901091958 71 0 0.0 0.0 0.00 0.00 0.00 63 1017.6
20260901091458 71 0 0.0 0.0 0.00 0.00 0.00 63 1017.6
20260901090958 71 0 0.0 0.0 0.00 0.00 0.00 65 1017.6
20260901090458 70 0 0.0 0.0 0.00 0.00 0.00 67 1017.6
20260901085958 70 0 0.0 0.0 0.00 0.00 0.00 66 1017.7
20260901084459 70 0 0.0 0.0 0.00 0.00 0.00 64 1017.6
20260901083959 71 0 0.0 0.0 0.00 0.00 0.00 64 1017.6
20260901082958 70 0 0.0 0.0 0.00 0.00 0.00 65 1017.5
20260901082459 70 0 0.0 0.0 0.00 0.00 0.00 65 1017.4
20260901081959 71 0 0.0 0.0 0.00 0.00 0.00 67 1017.4
20260901080959 69 0 0.0 0.0 0.00 0.00 0.00 68 1017.4
20260901075959 67 0 0.0 0.0 0.00 0.00 0.00 71 1017.3
20260901075459 66 0 0.0 0.0 0.00 0.00 0.00 74 1017.3
20260901074458 67 0 0.0 0.0 0.00 0.00 0.00 72 1017.1
20260901073958 67 0 0.0 0.0 0.00 0.00 0.00 74 1017.1
20260901072959 67 0 0.0 0.0 0.00 0.00 0.00 74 1017.0
20260901072459 67 0 0.0 0.0 0.00 0.00 0.00 73 1016.9
20260901071959 67 0 0.0 0.0 0.00 0.00 0.00 76 1016.9
20260901071459 66 0 0.0 0.0 0.00 0.00 0.00 75 1016.8
20260901070459 66 0 0.0 0.0 0.00 0.00 0.00 77 1016.8
20260901065959 66 0 0.0 0.0 0.00 0.00 0.00 76 1016.7
20260901065459 65 0 0.0 0.0 0.00 0.00 0.00 78 1016.6
20260901064959 65 0 0.0 0.0 0.00 0.00 0.00 79 1016.6
20260901064459 64 0 0.0 0.0 0.00 0.00 0.00 80 1016.7
20260901064000 64 0 0.0 0.0 0.00 0.00 0.00 82 1016.7
20260901063459 63 0 0.0 0.0 0.00 0.00 0.00 85 1016.5
20260901062959 63 0 0.0 0.0 0.00 0.00 0.00 88 1016.4
20260901062459 62 0 0.0 0.0 0.00 0.00 0.00 90 1016.4
20260901061459 61 0 0.0 0.0 0.00 0.00 0.00 93 1016.6
20260901061000 60 0 0.0 0.0 0.00 0.00 0.00 94 1016.5
20260901060459 60 0 0.0 0.0 0.00 0.00 0.00 95 1016.3
20260901055959 59 0 0.0 0.0 0.00 0.00 0.00 95 1016.2
20260901055500 58 0 0.0 0.0 0.00 0.00 0.00 95 1016.2
20260901054958 58 0 0.0 0.0 0.00 0.00 0.00 95 1016.1
20260901054500 58 0 0.0 0.0 0.00 0.00 0.00 95 1016.1
20260901054000 57 0 0.0 0.0 0.00 0.00 0.00 95 1016.0
20260901053459 57 0 0.0 0.0 0.00 0.00 0.00 95 1016.0
20260901053000 56 0 0.0 0.0 0.00 0.00 0.00 95 1015.9
20260901051959 56 0 0.0 0.0 0.00 0.00 0.00 95 1015.7
20260901051459 56 0 0.0 0.0 0.00 0.00 0.00 95 1015.7
20260901051000 55 0 0.0 0.0 0.00 0.00 0.00 95 1015.6
20260901050459 55 0 0.0 0.0 0.00 0.00 0.00 95 1015.5
20260901045959 55 0 0.0 0.0 0.00 0.00 0.00 95 1015.5
20260901045459 55 0 0.0 0.0 0.00 0.00 0.00 95 1015.5
20260901044959 55 0 0.0 0.0 0.00 0.00 0.00 95 1015.5
20260901044459 55 0 0.0 0.0 0.00 0.00 0.00 95 1015.4
20260901043959 54 0 0.0 0.0 0.00 0.00 0.00 95 1015.4
20260901043000 54 0 0.0 0.0 0.00 0.00 0.00 95 1015.3
20260901041500 54 0 0.0 0.0 0.00 0.00 0.00 95 1015.1
20260901041001 55 0 0.0 0.0 0.00 0.00 0.00 95 1015.2
20260901035959 54 0 0.0 0.0 0.00 0.00 0.00 95 1015.1
20260901035501 54 0 0.0 0.0 0.00 0.00 0.00 94 1015.1
20260901034959 54 0 0.0 0.0 0.00 0.00 0.00 94 1015.1
20260901034500 55 0 0.0 0.0 0.00 0.00 0.00 94 1015.0
20260901034001 55 0 0.0 0.0 0.00 0.00 0.00 95 1014.9
20260901032959 56 0 0.0 0.0 0.00 0.00 0.00 94 1014.8
20260901032501 56 0 0.0 0.0 0.00 0.00 0.00 95 1014.9
20260901031959 56 0 0.0 0.0 0.00 0.00 0.00 94 1014.9
20260901030959 56 0 0.0 0.0 0.00 0.00 0.00 95 1014.8
20260901030459 56 0 0.0 0.0 0.00 0.00 0.00 94 1014.9
20260901025500 56 0 0.0 0.0 0.00 0.00 0.00 94 1014.9
20260901024000 56 0 0.0 0.0 0.00 0.00 0.00 94 1014.7
20260901023000 56 0 0.0 0.0 0.00 0.00 0.00 94 1014.8
20260901022500 56 0 0.0 0.0 0.00 0.00 0.00 94 1014.8
20260901021959 56 0 0.0 0.0 0.00 0.00 0.00 94 1014.8
20260901021459 57 0 0.0 0.0 0.00 0.00 0.00 94 1014.7
20260901021001 57 0 0.0 0.0 0.00 0.00 0.00 94 1014.7
20260901020500 57 0 0.0 0.0 0.00 0.00 0.00 94 1014.7
20260901020000 57 0 0.0 0.0 0.00 0.00 0.00 94 1014.6
20260901015501 57 0 0.0 0.0 0.00 0.00 0.00 94 1014.5
20260901014959 58 0 0.0 0.0 0.00 0.00 0.00 94 1014.5
20260901014459 58 0 0.0 0.0 0.00 0.00 0.00 94 1014.5
20260901014001 58 0 0.0 0.0 0.00 0.00 0.00 94 1014.6
20260901013500 58 0 0.0 0.0 0.00 0.00 0.00 94 1014.7
20260901013000 58 0 0.0 0.0 0.00 0.00 0.00 94 1014.8
20260901012501 59 0 0.0 0.0 0.00 0.00 0.00 94 1014.7
20260901011500 59 0 0.0 0.0 0.00 0.00 0.00 95 1014.6
20260901010959 59 0 0.0 0.0 0.00 0.00 0.00 95 1014.7
20260901010500 59 0 0.0 0.0 0.00 0.00 0.00 95 1014.7
20260901010001 59 0 0.0 0.0 0.00 0.00 0.00 94 1014.7
20260901005500 59 0 0.0 0.0 0.00 0.00 0.00 94 1014.7
20260901004459 59 0 0.0 0.0 0.00 0.00 0.00 94 1014.7
20260901004001 58 0 0.0 0.0 0.00 0.00 0.00 94 1014.8
20260901003000 58 0 0.0 0.0 0.00 0.00 0.00 94 1014.8
20260901002501 58 0 0.0 0.0 0.00 0.00 0.00 94 1014.8
20260901002001 58 0 0.0 0.0 0.00 0.00 0.00 94 1014.9
20260901001001 58 0 0.0 0.0 0.00 0.00 0.00 94 1014.9
20260901000500 58 0 0.0 0.0 0.00 0.00 0.00 94 1014.9
20260901000000 58 0 0.0 0.0 0.00 0.00 0.00 94 1014.9
20260831235500 58 0 0.0 0.0 0.00 0.00 0.00 94 1014.8
20260831234500 58 0 0.0 0.0 0.00 0.00 0.00 94 1014.9
20260831234000 58 0 0.0 0.0 0.00 0.00 0.00 94 1014.9
20260831233500 57 0 0.0 0.0 0.00 0.00 0.00 94 1014.9
20260831233001 58 0 0.0 0.0 0.00 0.00 0.00 94 1014.9
20260831232501 58 0 0.0 0.0 0.00 0.00 0.00 94 1014.9
20260831231001 58 0 0.0 0.0 0.00 0.00 0.00 94 1015.0
20260831230501 58 0 0.0 0.0 0.00 0.00 0.00 94 1015.0
20260831230001 58 0 0.0 0.0 0.00 0.00 0.00 94 1015.0
20260831225500 58 0 0.0 0.0 0.00 0.00 0.00 94 1015.1
20260831225001 58 0 0.0 0.0 0.00 0.00 0.00 94 1015.2
20260831223500 58 0 0.0 0.0 0.00 0.00 0.00 94 1015.1
20260831223000 58 0 0.0 0.0 0.00 0.00 0.00 94 1015.1
20260831222000 58 0 0.0 0.0 0.00 0.00 0.00 93 1015.2
20260831221000 58 0 0.0 0.0 0.00 0.00 0.00 93 1015.1
20260831215500 58 0 0.0 0.0 0.00 0.00 0.00 93 1015.1
20260831215000 58 0 0.0 0.0 0.00 0.00 0.00 93 1015.0
20260831214502 58 0 0.0 0.0 0.00 0.00 0.00 93 1015.0
20260831214001 58 0 0.0 0.0 0.00 0.00 0.00 93 1015.0
20260831213501 58 0 0.0 0.0 0.00 0.00 0.00 93 1015.1
20260831213002 58 0 0.0 0.0 0.00 0.00 0.00 93 1014.8
20260831212501 58 0 0.0 0.0 0.00 0.00 0.00 93 1014.7
20260831212001 58 0 0.0 0.0 0.00 0.00 0.00 93 1014.8
20260831211502 59 0 0.0 0.0 0.00 0.00 0.00 93 1014.7
20260831211001 58 0 0.0 0.0 0.00 0.00 0.00 93 1014.8
20260831210500 58 0 0.0 0.0 0.00 0.00 0.00 93 1014.8
20260831210002 59 0 0.0 0.0 0.00 0.00 0.00 92 1014.8
20260831205501 59 0 0.0 0.0 0.00 0.00 0.00 93 1014.7
20260831205001 59 0 0.0 0.0 0.00 0.00 0.00 93 1014.6
20260831204502 59 0 0.0 0.0 0.00 0.00 0.00 93 1014.5
20260831204001 60 0 0.0 0.0 0.00 0.00 0.00 92 1014.5
20260831203501 60 0 0.0 0.0 0.00 0.00 0.00 93 1014.5
20260831202501 60 0 0.0 0.0 0.00 0.00 0.00 92 1014.5
20260831202001 60 0 0.0 0.0 0.00 0.00 0.00 92 1014.3
20260831201500 60 0 0.0 0.0 0.00 0.00 0.00 92 1014.5
20260831201001 60 0 0.0 0.0 0.00 0.00 0.00 92 1014.4
20260831200501 60 0 0.0 0.0 0.00 0.00 0.00 92 1014.4
20260831200002 60 0 0.0 0.0 0.00 0.00 0.00 92 1014.3
20260831195501 60 0 0.0 0.0 0.00 0.00 0.00 91 1014.3
20260831195001 61 0 0.0 0.0 0.00 0.00 0.00 91 1014.3
20260831194501 61 0 0.0 0.0 0.00 0.00 0.00 91 1014.2
20260831194001 61 0 0.0 0.0 0.00 0.00 0.00 91 1014.2
20260831193501 61 0 0.0 0.0 0.00 0.00 0.00 91 1014.2
20260831193001 61 0 0.0 0.0 0.00 0.00 0.00 91 1014.2
20260831192502 62 0 0.0 0.0 0.00 0.00 0.00 90 1014.2
20260831191501 62 0 0.0 0.0 0.00 0.00 0.00 90 1014.2
20260831190501 63 0 0.0 0.0 0.00 0.00 0.00 89 1014.1
20260831190001 63 0 0.0 0.0 0.00 0.00 0.00 89 1014.1
20260831185501 63 0 0.0 0.0 0.00 0.00 0.00 89 1014.1
20260831185001 63 0 0.0 0.0 0.00 0.00 0.00 88 1014.1
20260831184501 64 0 0.0 0.0 0.00 0.00 0.00 88 1014.2
20260831184002 64 0 0.0 0.0 0.00 0.00 0.00 88 1014.1
20260831183501 64 0 0.0 0.0 0.00 0.00 0.00 87 1014.2
20260831183002 64 0 0.0 0.0 0.00 0.00 0.00 87 1014.1
20260831182502 65 0 0.0 0.0 0.00 0.00 0.00 86 1014.1
20260831182001 65 0 0.0 0.0 0.00 0.00 0.00 86 1014.1
20260831181501 65 0 0.0 0.0 0.00 0.00 0.00 85 1014.0
20260831180501 66 0 0.0 0.0 0.00 0.00 0.00 83 1013.8
20260831180002 67 0 0.0 0.0 0.00 0.00 0.00 82 1013.7
20260831175502 67 0 0.0 0.0 0.00 0.00 0.00 82 1013.6
20260831174502 68 0 0.0 0.0 0.00 0.00 0.00 80 1013.5
20260831173502 69 0 0.0 0.0 0.00 0.00 0.00 80 1013.3
20260831173002 68 0 0.0 0.0 0.00 0.00 0.00 82 1013.3
20260831172001 69 0 0.0 0.0 0.00 0.00 0.00 81 1013.2
20260831171501 70 0 0.0 0.0 0.00 0.00 0.00 80 1013.2
20260831171001 70 0 0.0 0.0 0.00 0.00 0.00 79 1013.1
20260831170502 70 0 0.0 0.0 0.00 0.00 0.00 79 1013.1
20260831170002 71 0 0.0 0.0 0.00 0.00 0.00 78 1013.2
20260831165502 72 0 0.0 0.0 0.00 0.00 0.00 76 1013.2
20260831165002 72 0 0.0 0.0 0.00 0.00 0.00 76 1013.2
20260831164501 72 0 0.0 0.0 0.00 0.00 0.00 76 1013.2
20260831163502 73 0 0.0 0.0 0.00 0.00 0.00 75 1013.1
20260831163002 73 0 0.0 0.0 0.00 0.00 0.00 76 1013.1
20260831162504 73 0 0.0 0.0 0.00 0.00 0.00 76 1013.0
20260831162002 74 0 0.0 0.0 0.00 0.00 0.00 75 1013.0
20260831161502 73 0 0.0 0.0 0.00 0.00 0.00 75 1013.1
20260831160501 74 0 0.0 0.0 0.00 0.00 0.00 73 1012.9
20260831160002 74 0 0.0 0.0 0.00 0.00 0.00 72 1013.0
20260831155502 74 0 0.0 0.0 0.00 0.00 0.00 71 1012.9
20260831155002 75 0 0.0 0.0 0.00 0.00 0.00 71 1013.0
20260831154502 75 0 0.0 0.0 0.00 0.00 0.00 71 1013.1
20260831154002 75 0 0.0 0.0 0.00 0.00 0.00 70 1013.0
20260831153502 75 0 0.0 0.0 0.00 0.00 0.00 71 1013.0
20260831153002 75 0 0.0 0.0 0.00 0.00 0.00 71 1013.1
20260831152502 74 0 0.0 0.0 0.00 0.00 0.00 72 1013.1
20260831152002 74 0 0.0 0.0 0.00 0.00 0.00 72 1013.1
20260831151502 75 0 0.0 0.0 0.00 0.00 0.00 70 1013.1
20260831151002 75 0 0.0 0.0 0.00 0.00 0.00 71 1013.1
20260831150002 75 0 0.0 0.0 0.00 0.00 0.00 73 1013.1
20260831145502 75 0 0.0 0.0 0.00 0.00 0.00 74 1013.1
20260831145002 74 0 0.0 0.0 0.00 0.00 0.00 74 1013.2
20260831144502 74 0 0.0 0.0 0.00 0.00 0.00 73 1013.2
20260831144002 75 0 0.0 0.0 0.00 0.00 0.00 72 1013.2
20260831143002 75 0 0.0 0.0 0.00 0.00 0.00 70 1013.2
20260831142502 75 0 0.0 0.0 0.00 0.00 0.00 71 1013.2
20260831142002 76 0 0.0 0.0 0.00 0.00 0.00 69 1013.2
20260831141502 77 0 0.0 0.0 0.00 0.00 0.00 67 1013.1
20260831141002 76 0 0.0 0.0 0.00 0.00 0.00 70 1013.1
20260831140002 75 0 0.0 0.0 0.00 0.00 0.00 72 1013.1
20260831135504 75 0 0.0 0.0 0.00 0.00 0.00 73 1013.1
20260831135002 74 0 0.0 0.0 0.00 0.00 0.00 73 1013.2
20260831134502 74 0 0.0 0.0 0.00 0.00 0.00 73 1013.2
20260831134003 75 0 0.0 0.0 0.00 0.00 0.00 73 1013.3
20260831133502 75 0 0.0 0.0 0.00 0.00 0.00 71 1013.3
20260831131503 75 0 0.0 0.0 0.00 0.00 0.00 70 1013.3
20260831131002 75 0 0.0 0.0 0.00 0.00 0.00 69 1013.3
20260831130502 75 0 0.0 0.0 0.00 0.00 0.00 68 1013.3
20260831125002 76 0 0.0 0.0 0.00 0.00 0.00 69 1013.3
20260831124002 74 0 0.0 0.0 0.00 0.00 0.00 70 1013.2
20260831123502 75 0 0.0 0.0 0.00 0.00 0.00 68 1013.3
20260831123004 76 0 0.0 0.0 0.00 0.00 0.00 67 1013.3
20260831122503 76 0 0.0 0.0 0.00 0.00 0.00 70 1013.3
20260831122003 76 0 0.0 0.0 0.00 0.00 0.00 69 1013.3
20260831121502 77 0 0.0 0.0 0.00 0.00 0.00 71 1013.2
20260831121002 76 0 0.0 0.0 0.00 0.00 0.00 75 1013.2
20260831120002 75 0 0.0 0.0 0.00 0.00 0.00 76 1013.3
20260831115502 75 0 0.0 0.0 0.00 0.00 0.00 74 1013.2
20260831114502 74 0 0.0 0.0 0.00 0.00 0.00 77 1013.0
20260831114004 73 0 0.0 0.0 0.00 0.00 0.00 82 1013.0
20260831113003 72 0 0.0 0.0 0.00 0.00 0.00 86 1013.1
20260831112504 72 0 0.0 0.0 0.00 0.00 0.00 86 1013.2
20260831112003 72 0 0.0 0.0 0.00 0.00 0.00 85 1013.2
20260831111503 72 0 0.0 0.0 0.00 0.00 0.00 84 1013.3
20260831110503 72 0 0.0 0.0 0.00 0.00 0.00 85 1013.3
20260831110003 72 0 0.0 0.0 0.00 0.00 0.00 87 1013.4
20260831105503 71 0 0.0 0.0 0.00 0.00 0.00 86 1013.4
20260831105003 71 0 0.0 0.0 0.00 0.00 0.00 85 1013.4
20260831104504 71 0 0.0 0.0 0.00 0.00 0.00 85 1013.5
20260831104003 72 0 0.0 0.0 0.00 0.00 0.00 83 1013.4
20260831103502 72 0 0.0 0.0 0.00 0.00 0.00 83 1013.5
20260831102503 72 0 0.0 0.0 0.00 0.00 0.00 80 1013.4
20260831102003 73 0 0.0 0.0 0.00 0.00 0.00 80 1013.5
20260831101004 74 0 0.0 0.0 0.00 0.00 0.00 75 1013.6
20260831100004 73 0 0.0 0.0 0.00 0.00 0.00 81 1013.5
20260831095504 73 0 0.0 0.0 0.00 0.00 0.00 80 1013.5
20260831095003 73 0 0.0 0.0 0.00 0.00 0.00 79 1013.4
20260831094005 73 0 0.0 0.0 0.00 0.00 0.00 76 1013.5
20260831093503 73 0 0.0 0.0 0.00 0.00 0.00 78 1013.5
20260831093003 74 0 0.0 0.0 0.00 0.00 0.00 78 1013.4